千帆星座-6 (QIANFAN-6)

基本信息
目录编号:
60384
目录名称:
QIANFAN-6
国际标识:
2024-140F
轨道中心:
EARTH
卫星名称:
千帆星座-6 (QIANFAN-6)
卫星全名:
千帆星座-6 (QIANFAN-6)
卫星状态:
在轨 (已飞行496 天)
发射日期:
2024-08-06 UTC
国别 :
中国 (CN)
星等 :
--
轨道信息
数据来源 国际轨道数据 AOE轨道数据
星历时间 2025-12-15T06:09:02+0800
20小时前
查看轨道信息
2025-12-14T15:00:00+0800
1天前
查看轨道信息
半长轴 7446.79km 7446.791km
偏心率 0.0012471 0.0012617
轨道倾角 88.977° 88.977°
近地点辐角 181.344° 182.140°
升交点赤经 298.798° 298.865°
平近点角 178.768° 349.565°
近地点 1059.368km 1059.26km
远地点 1077.942km 1078.052km
周期 106.589分钟 106.589分钟
每日圈数 13.509807 13.509803
详细信息
运营商:
上海垣信卫星科技有限公司
运营商所在国:
中国
使用方式:
暂无
卫星简介
千帆星座,也被称为“G60星链”计划,是中国版“星链”的重要组成部分,旨在打造一个由1.4万多颗低轨宽频多媒体卫星构成的庞大星座。千帆星座计划由上海垣信卫星科技有限公司负责实施,于2023年启动建设。该项目是我国第二个低轨卫星大星座,旨在通过构建庞大的卫星网络,为全球用户提供高质量的通信和宽带互联网服务。
2D轨道图
3D轨道图
轨道高度分析图
轨道倾角分析图
轨道综合分析图
查看轨道综合分析图